Regional Weather Roundup
Issued by NWS New Orleans/Baton Rouge, LA

Home | Current Version | Previous Version | Text Only | Print | Product List | Glossary On
Versions: 1 2 3 4 5 6 7 8 9 10 11 12 13 14 15 16 17 18 19 20 21 22 23 24 25 26 27 28
000
ASUS44 KLIX 140912
RWRLIX
NEW ORLEANS REGIONAL WEATHER ROUNDUP
NATIONAL WEATHER SERVICE NEW ORLEANS LA
300 AM CST THU DEC 14 2017

NOTE: "FAIR" INDICATES FEW OR NO CLOUDS BELOW 12,000 FEET WITH NO
      SIGNIFICANT WEATHER AND/OR OBSTRUCTIONS TO VISIBILITY.
      SKY/WX - SKY CONDITION AND SIGNIFICANT WEATHER.
      TMP - AIR TEMPERATURE.     DP    - DEWPOINT TEMPERATURE.
      RH  - RELATIVE HUMIDITY.   PRES  - PRESSURE.
      HI  - HEAT INDEX.          WCI   - WIND CHILL INDEX.

*  THESE STATIONS ARE NOT NWS OR FAA STATIONS AND ARE NOT UNDER
   NWS QUALITY CONTROL.

LAZ038-040-048-061>063-065>067-069-141000-
SOUTHEAST LOUISIANA

CITY           SKY/WX    TMP DP  RH WIND       PRES   REMARKS
N.O. INTL ARPT CLOUDY    46  44  93 CALM      29.98S
N.O. LAKEFRONT PTCLDY    51  45  79 SW6       29.99R
N.O. DOWNTOWN*   N/A     52  45  77 CALM      29.99S
RESERVE*         N/A     44  41  89 CALM      29.98S
SLIDELL        PTCLDY    41  38  89 CALM      29.98R
BATON ROUGE    PTCLDY    40  39  97 CALM      29.97S
BOOTHVILLE     PTCLDY    52  49  89 CALM      29.99S
BELLE CHASSE   MOCLDY    41  41 100 CALM      29.98S
BOGALUSA*        N/A     36  34  90 MISG      29.99R
GALLIANO*      SUNNY     38  36  91 CALM      29.98F FOG
NEW ROADS*       N/A     36  35  96 CALM      29.97F
GONZALES*        N/A     41  40  95 CALM      29.98R
HAMMOND*       CLEAR     37  36  93 CALM      29.98R
HOUMA*         PTCLDY    41  40  97 CALM      29.98S
PORT FOURCHON* SUNNY     55  52  88 CALM      29.99F

$$

MSZ070-080>082-141000-
SOUTHERN MISSISSIPPI

CITY           SKY/WX    TMP DP  RH WIND       PRES   REMARKS
MCCOMB         PTCLDY    37  34  89 CALM      29.95F
GULFPORT       PTCLDY    43  41  93 CALM      29.98S
BILOXI         PTCLDY    47  42  84 CALM      29.97S
PASCAGOULA     CLOUDY    40  37  89 CALM      29.98S FOG

$$

COASTAL OBSERVATIONS
LAKE AND NEARSHORE STATIONS

STATION/POSITION TIME  TEMP    WIND        PRES    WAVE
                       AIR SEA DIR/SP/G            HT/PER
                 (UTC) (F)     (DEG/KT/KT) (MB)    (FT/S)
PASCAGOULA       0848   52     290/  5/  6 1014.8
WAVELAND YACHT   0848   48 52  270/  1/  2 1014.9
GRAND ISLE       0848   55 62   CALM  /  2 1015.0
SOUTHWEST PASS   0848   63 58  260/ 12/ 13 1015.7
NEW CANAL        0848   51 54  230/  4/  6 1015.1
SHELL BEACH      0848   50 55  210/  3/  3 1015.2

OFFSHORE STATIONS

STATION/POSITION TIME  TEMP    WIND        PRES    WAVE
                       AIR SEA DIR/SP/G            HT/PER
                 (UTC) (F)     (DEG/KT/KT) (MB)    (FT/S)
64 S DAUPHIN ISL 0850   64 73  280/ 14/ 17 1015.5    3/ 4

$$





USA.gov is the U.S. government's official web portal to all federal, state and local government web resources and services.